Location: *
(50.3440°N, 18.6237°E)
Time: 14:35:39
(UTC+00:00)

Cosmos 1939 Rocket - Pass Details

Date: 30 November 2020
Orbit: 532 x 584 km, 97.4° (Epoch: 26 January)

Event Time Altitude Azimuth Distance (km) Brightness Sun altitude
Rises 15:57:58 0° 141° (SE) 2,679 6.1 -11.1°
Reaches altitude 10° 16:00:12 10° 131° (SE) 1,798 5.2 -11.4°
Maximum altitude 16:03:41 32° 67° (ENE) 948 3.5 -11.9°
Drops below altitude 10° 16:07:13 10° 4° (N) 1,835 5.3 -12.5°
Sets 16:09:31 0° 355° (N) 2,743 6.2 -12.8°
